[[{"header":{"parameterUnit":"m.s-1","parameterCategory":1,"la1":30.2991,"la2":30.254,"lo1":-89.0895,"lo2":-89.0444,"dy":0.0017,"dx":0.0017,"nx":28,"ny":28,"refTime":"2024-02-04T09:00:00:Z","depth":0,"parameterNumber":2,"parameterNumberName":"U-component_of_WINDS"},"data":[0,0,0,0,0,0,0,0,0,0,0,0,0,0,0,0,0,0,0,0,0,0,0,0,0,0,0,0,0,0,0,0,0,0,0,0,0,0,0,0,0,0,0,0,0,0,0,0,0,0,0,0,0,0,0,0,0,0,-0.2143,-0.2143,0,-0.2127,-0.2127,-0.2127,-0.2104,-0.2103,-0.2103,-0.2103,-0.2086,-0.2086,-0.2086,0,0,0,0,0,0,0,0,0,0,0,0,0,-0.2153,-0.2153,-0.2143,-0.2143,-0.2142,-0.2127,-0.2127,-0.2127,-0.2104,-0.2103,-0.2103,-0.2102,-0.2086,-0.2086,-0.2086,0,0,0,0,0,0,0,0,0,0,0,0,0,-0.2144,-0.2153,-0.2143,-0.2129,-0.2128,-0.2127,-0.2127,-0.2127,-0.2104,-0.2103,-0.2103,-0.2102,-0.2086,-0.2086,-0.2086,-0.2098,0,0,-0.2086,-0.2086,0,0,0,0,0,0,0,0,-0.2144,-0.2144,-0.2131,-0.213,-0.2129,-0.2117,-0.2124,-0.2117,-0.2104,-0.2113,-0.2103,-0.2102,-0.2097,-0.2096,-0.2094,-0.2097,-0.2096,-0.2086,-0.2086,-0.2086,-0.2086,0,0,0,0,0,0,0,-0.2145,-0.2144,-0.2137,-0.2131,-0.213,-0.2124,-0.2122,-0.2123,-0.2109,-0.2112,-0.211,-0.2109,-0.2096,-0.2094,-0.2094,-0.2096,-0.2086,-0.2086,-0.2086,-0.2086,-0.2108,-0.2109,0,0,0,0,0,0,-0.2148,-0.2145,-0.2137,-0.2136,-0.2135,-0.2124,-0.2122,-0.2121,-0.2108,-0.2106,-0.2109,-0.2108,-0.2095,-0.2094,-0.2093,-0.2106,-0.2086,-0.2086,-0.2086,-0.2107,-0.2108,-0.2109,0,0,0,0,0,0,-0.2148,-0.2147,-0.2138,-0.214,-0.2138,-0.2125,-0.2124,-0.2121,-0.212,-0.2106,-0.2104,-0.2111,-0.2094,-0.2093,-0.2097,-0.2105,-0.2086,-0.2086,-0.2107,-0.2108,-0.2108,-0.2133,0,0,0,0,0,0,-0.2148,-0.2148,-0.2152,-0.214,-0.2138,-0.2142,-0.2124,-0.2121,-0.212,-0.2117,-0.2107,-0.2104,-0.2094,-0.2097,-0.2097,-0.2105,-0.2085,-0.2106,-0.2107,-0.2108,-0.2131,-0.2135,-0.2137,0,0,0,0,0,-0.2149,-0.2159,-0.2152,-0.2151,-0.2143,-0.2143,-0.2141,-0.2129,-0.212,-0.2125,-0.2116,-0.2105,-0.2104,-0.2098,-0.2097,-0.2105,-0.2105,-0.2107,-0.2108,-0.213,-0.2134,-0.2137,0,0,0,0,0,0,-0.2172,-0.2157,-0.2149,-0.2156,-0.2151,-0.2139,-0.2144,-0.2134,-0.2131,-0.2129,-0.2113,-0.2111,-0.2117,-0.2111,-0.2104,-0.2116,-0.2103,-0.2104,-0.212,-0.2124,-0.2127,-0.2128,-0.2085,0,0,0,0,0,-0.2178,-0.2178,-0.2166,-0.2173,-0.2171,-0.2158,-0.2157,-0.2148,-0.2142,-0.2139,-0.2131,-0.2125,-0.2124,-0.2123,-0.2121,-0.213,-0.2128,-0.2135,-0.2139,-0.2141,-0.2143,-0.2148,-0.2151,-0.2113,-0.2113,-0.2113,0,0,-0.219,-0.2182,-0.2183,-0.2177,-0.2172,-0.2173,-0.2156,-0.2158,-0.2158,-0.2139,-0.2143,-0.2136,-0.2129,-0.2135,-0.2138,-0.2131,-0.2153,-0.2143,-0.2145,-0.2145,-0.215,-0.2153,-0.2156,-0.2114,-0.2114,-0.2114,0,0,-0.2213,-0.2207,-0.2213,-0.2208,-0.22,-0.2191,-0.2193,-0.2182,-0.2177,-0.218,-0.2166,-0.2167,-0.2164,-0.216,-0.2157,-0.2179,-0.2168,-0.2178,-0.2195,-0.22,-0.2203,-0.2205,-0.2214,-0.2217,-0.218,-0.218,-0.218,0,-0.223,-0.2231,-0.2217,-0.222,-0.2218,-0.22,-0.2206,-0.2202,-0.2194,-0.2193,-0.2185,-0.2183,-0.2176,-0.2182,-0.2187,-0.2185,-0.2187,-0.218,-0.2204,-0.2206,-0.2208,-0.2216,-0.2219,-0.2181,-0.2181,-0.2181,-0.2181,0,-0.2251,-0.2252,-0.2258,-0.2251,-0.2249,-0.2253,-0.2241,-0.2241,-0.2232,-0.2224,-0.2227,-0.2219,-0.2216,-0.2216,-0.2207,-0.222,-0.2216,-0.2206,-0.2193,-0.2213,-0.2221,-0.2223,-0.2183,-0.2183,-0.2182,-0.2182,0,0,-0.2289,-0.2275,-0.2277,-0.2274,-0.2264,-0.2264,-0.2268,-0.2264,-0.2265,-0.226,-0.2263,-0.2261,-0.2252,-0.2249,-0.224,-0.2244,-0.2262,-0.2233,-0.2233,-0.224,-0.2277,-0.2286,-0.229,-0.2255,-0.2256,-0.2256,-0.2278,0,-0.2311,-0.2316,-0.2304,-0.2313,-0.2314,-0.2297,-0.23,-0.2295,-0.2288,-0.2287,-0.2279,-0.2279,-0.2266,-0.2264,-0.2268,-0.2259,-0.227,-0.2257,-0.2258,-0.2258,-0.2262,-0.2293,-0.2302,-0.2324,-0.2281,-0.2281,-0.2282,0,-0.2337,-0.2334,-0.2343,-0.2333,-0.2333,-0.2336,-0.2332,-0.2331,-0.2325,-0.2319,-0.2316,-0.2305,-0.2308,-0.2294,-0.2298,-0.229,-0.229,-0.2286,-0.2286,-0.2286,-0.2272,-0.2295,-0.233,-0.2334,-0.2286,-0.2286,-0.2285,0,-0.2365,-0.2363,-0.2368,-0.2365,-0.2353,-0.2356,-0.2351,-0.2344,-0.2343,-0.2339,-0.2338,-0.2335,-0.2334,-0.2331,-0.232,-0.2311,-0.2325,-0.2311,-0.2321,-0.2322,-0.2326,-0.2326,-0.2362,-0.2324,-0.2324,-0.2324,-0.2324,0,-0.2391,-0.2397,-0.238,-0.2383,-0.239,-0.2376,-0.2382,-0.2376,-0.237,-0.2371,-0.2356,-0.2359,-0.2343,-0.2343,-0.2334,-0.2339,-0.2338,-0.2334,-0.2332,-0.2336,-0.2336,-0.2336,-0.2334,-0.2325,-0.2324,-0.2324,-0.2324,0,-0.2424,-0.2412,-0.2417,-0.2405,-0.2403,-0.2408,-0.2398,-0.2401,-0.2392,-0.2395,-0.2395,-0.2382,-0.2381,-0.2369,-0.2366,-0.236,-0.2369,-0.2364,-0.2372,-0.237,-0.2382,-0.2381,-0.242,-0.2424,-0.2382,-0.2383,-0.2383,0,-0.2442,-0.2446,-0.2435,-0.2435,-0.2431,-0.2432,-0.2431,-0.2417,-0.2416,-0.2409,-0.2412,-0.2411,-0.2409,-0.2409,-0.2399,-0.2397,-0.2392,-0.2405,-0.2391,-0.2396,-0.2393,-0.2394,-0.2394,-0.2409,-0.2409,-0.241,-0.241,0,-0.2475,-0.2469,-0.2468,-0.2465,-0.2464,-0.2461,-0.2457,-0.2458,-0.2443,-0.2443,-0.2442,-0.2441,-0.2438,-0.2437,-0.2433,-0.2428,-0.2417,-0.2414,-0.2417,-0.2422,-0.2427,-0.2425,-0.2381,-0.2414,-0.2413,-0.2413,-0.2413,-0.2413,-0.2502,-0.2505,-0.2498,-0.2497,-0.2493,-0.2489,-0.2492,-0.2484,-0.2483,-0.248,-0.2471,-0.2472,-0.2466,-0.2459,-0.2455,-0.2456,-0.2449,-0.2452,-0.2453,-0.2455,-0.2457,-0.2426,-0.2455,-0.2455,-0.2454,-0.2454,-0.2454,0,-0.2535,-0.253,-0.2529,-0.2524,-0.2524,-0.2513,-0.2508,-0.2509,-0.251,-0.2504,-0.2503,-0.2502,-0.2501,-0.2491,-0.2489,-0.2492,-0.2487,-0.2492,-0.2492,-0.2491,-0.2463,-0.2462,-0.2496,-0.2496,-0.2496,-0.2496,-0.2496,-0.2496,-0.2553,-0.2558,-0.2551,-0.2555,-0.2549,-0.255,-0.2548,-0.2545,-0.2541,-0.2541,-0.254,-0.2534,-0.2527,-0.2524,-0.2523,-0.252,-0.252,-0.2527,-0.2523,-0.2497,-0.2493,-0.2489,-0.2488,-0.2527,-0.2527,-0.2551,-0.2551,-0.2551]},{"header":{"parameterUnit":"m.s-1","parameterCategory":1,"la1":30.2991,"la2":30.254,"lo1":-89.0895,"lo2":-89.0444,"dy":0.0017,"dx":0.0017,"nx":28,"ny":28,"refTime":"2024-02-04T09:00:00:Z","depth":0,"parameterNumber":3,"parameterNumberName":"V-component_of_WINDS"},"data":[0,0,0,0,0,0,0,0,0,0,0,0,0,0,0,0,0,0,0,0,0,0,0,0,0,0,0,0,0,0,0,0,0,0,0,0,0,0,0,0,0,0,0,0,0,0,0,0,0,0,0,0,0,0,0,0,0,0,-2.0374,-2.0375,0,-2.0441,-2.0442,-2.0443,-2.0475,-2.0475,-2.0475,-2.0475,-2.0543,-2.0545,-2.0547,0,0,0,0,0,0,0,0,0,0,0,0,0,-2.0274,-2.0275,-2.0374,-2.0375,-2.0376,-2.0441,-2.0442,-2.0443,-2.0475,-2.0475,-2.0475,-2.0475,-2.0543,-2.0545,-2.0547,0,0,0,0,0,0,0,0,0,0,0,0,0,-2.0327,-2.0276,-2.0374,-2.04,-2.0403,-2.0441,-2.0442,-2.0443,-2.0475,-2.0475,-2.0475,-2.0475,-2.0542,-2.0545,-2.0547,-2.0565,0,0,-2.0556,-2.0557,0,0,0,0,0,0,0,0,-2.0324,-2.033,-2.0395,-2.0398,-2.0401,-2.045,-2.0432,-2.0484,-2.0475,-2.0448,-2.0475,-2.0475,-2.0512,-2.0517,-2.053,-2.0568,-2.0571,-2.0556,-2.0558,-2.0559,-2.056,0,0,0,0,0,0,0,-2.032,-2.0328,-2.0401,-2.0396,-2.04,-2.0408,-2.0415,-2.0442,-2.0479,-2.045,-2.0453,-2.046,-2.0514,-2.0527,-2.0532,-2.0572,-2.0556,-2.0558,-2.056,-2.0561,-2.063,-2.063,0,0,0,0,0,0,-2.0312,-2.0324,-2.0398,-2.0403,-2.0362,-2.041,-2.0418,-2.0434,-2.0479,-2.0486,-2.046,-2.0461,-2.0523,-2.0529,-2.0534,-2.0559,-2.0559,-2.0561,-2.0563,-2.0629,-2.063,-2.063,0,0,0,0,0,0,-2.031,-2.0318,-2.0396,-2.0364,-2.0375,-2.0412,-2.0429,-2.0436,-2.0449,-2.0487,-2.0493,-2.0467,-2.0523,-2.0531,-2.0558,-2.0562,-2.0563,-2.0565,-2.0629,-2.0629,-2.063,-2.0607,0,0,0,0,0,0,-2.0307,-2.0317,-2.0324,-2.0364,-2.0376,-2.0417,-2.043,-2.0437,-2.0454,-2.0456,-2.0495,-2.0501,-2.0523,-2.0553,-2.056,-2.0566,-2.0567,-2.0629,-2.0629,-2.063,-2.0608,-2.0607,-2.0606,0,0,0,0,0,-2.0303,-2.0315,-2.0324,-2.0333,-2.0386,-2.0418,-2.0425,-2.045,-2.0454,-2.0461,-2.0486,-2.05,-2.056,-2.0556,-2.0564,-2.057,-2.0629,-2.0629,-2.063,-2.0608,-2.0607,-2.0606,0,0,0,0,0,0,-2.0274,-2.032,-2.0332,-2.0356,-2.0383,-2.0423,-2.0433,-2.0448,-2.0473,-2.0474,-2.0505,-2.0513,-2.0538,-2.0557,-2.0551,-2.059,-2.0596,-2.0598,-2.0577,-2.0576,-2.0575,-2.057,-2.057,0,0,0,0,0,-2.027,-2.0292,-2.0332,-2.035,-2.0363,-2.0396,-2.041,-2.0428,-2.0457,-2.0468,-2.0494,-2.0521,-2.0546,-2.0562,-2.0587,-2.0611,-2.062,-2.0619,-2.0618,-2.0617,-2.0619,-2.0634,-2.0634,-2.0631,-2.0631,-2.0631,0,0,-2.0263,-2.0291,-2.0303,-2.0345,-2.0368,-2.039,-2.0405,-2.0428,-2.0445,-2.0471,-2.0499,-2.0519,-2.0551,-2.0577,-2.0589,-2.0593,-2.0622,-2.0618,-2.0617,-2.0619,-2.0634,-2.0634,-2.0634,-2.0631,-2.0631,-2.0631,0,0,-2.0262,-2.0285,-2.0303,-2.0326,-2.036,-2.0382,-2.0387,-2.0425,-2.044,-2.0468,-2.0488,-2.0509,-2.0551,-2.0574,-2.0591,-2.06,-2.0614,-2.0607,-2.0602,-2.0616,-2.0616,-2.0617,-2.0621,-2.0622,-2.0608,-2.0608,-2.0608,0,-2.0248,-2.0283,-2.0311,-2.0333,-2.0351,-2.0377,-2.0396,-2.0416,-2.0457,-2.0469,-2.0473,-2.0528,-2.0551,-2.0583,-2.0585,-2.0598,-2.0604,-2.0603,-2.0614,-2.0615,-2.0616,-2.062,-2.0621,-2.0607,-2.0607,-2.0607,-2.0608,0,-2.0266,-2.029,-2.03,-2.034,-2.0359,-2.0379,-2.041,-2.0427,-2.0443,-2.0464,-2.0493,-2.0523,-2.0555,-2.0563,-2.0579,-2.0598,-2.0599,-2.0608,-2.0615,-2.0614,-2.0619,-2.062,-2.0606,-2.0606,-2.0606,-2.0607,0,0,-2.0247,-2.0302,-2.0306,-2.0325,-2.0365,-2.0384,-2.0406,-2.0438,-2.0452,-2.0479,-2.0499,-2.0535,-2.0544,-2.0563,-2.0581,-2.0594,-2.06,-2.0601,-2.0603,-2.0601,-2.0624,-2.0617,-2.0618,-2.061,-2.061,-2.0611,-2.0621,0,-2.0252,-2.0293,-2.0319,-2.0349,-2.0372,-2.0398,-2.0417,-2.0444,-2.0465,-2.0488,-2.0511,-2.0536,-2.0546,-2.0558,-2.0571,-2.0596,-2.0605,-2.0596,-2.0629,-2.063,-2.062,-2.0621,-2.0613,-2.0622,-2.0623,-2.0623,-2.0624,0,-2.0263,-2.029,-2.0323,-2.0362,-2.0373,-2.039,-2.0422,-2.0443,-2.0474,-2.0489,-2.0511,-2.053,-2.0555,-2.056,-2.0595,-2.0588,-2.0603,-2.0617,-2.0618,-2.0623,-2.0627,-2.0625,-2.0625,-2.0627,-2.0626,-2.0626,-2.0626,0,-2.0247,-2.0292,-2.0318,-2.0333,-2.0379,-2.039,-2.041,-2.0442,-2.0459,-2.0487,-2.05,-2.053,-2.0546,-2.057,-2.0597,-2.0597,-2.0629,-2.0636,-2.0642,-2.0642,-2.0648,-2.0647,-2.0651,-2.0657,-2.0657,-2.0657,-2.0657,0,-2.0249,-2.0269,-2.0312,-2.0328,-2.035,-2.038,-2.0402,-2.0424,-2.0452,-2.0473,-2.0496,-2.0515,-2.055,-2.0573,-2.0595,-2.0621,-2.0628,-2.0641,-2.0646,-2.0639,-2.0637,-2.0649,-2.065,-2.0657,-2.0657,-2.0657,-2.0657,0,-2.0235,-2.0265,-2.0295,-2.0336,-2.0347,-2.0362,-2.0398,-2.0414,-2.0437,-2.0463,-2.0471,-2.0507,-2.0536,-2.0565,-2.0604,-2.0619,-2.0645,-2.0652,-2.0634,-2.0637,-2.0643,-2.0642,-2.0654,-2.0658,-2.0661,-2.0661,-2.0661,0,-2.0235,-2.0251,-2.0294,-2.031,-2.033,-2.0355,-2.0374,-2.0404,-2.0423,-2.046,-2.0473,-2.0504,-2.053,-2.0575,-2.0605,-2.0635,-2.0643,-2.0646,-2.0648,-2.0641,-2.0644,-2.0643,-2.0645,-2.0645,-2.0645,-2.0644,-2.0644,0,-2.0232,-2.0247,-2.0273,-2.0304,-2.0326,-2.0352,-2.038,-2.0391,-2.0427,-2.0447,-2.0477,-2.0498,-2.0538,-2.0569,-2.0603,-2.0623,-2.064,-2.0643,-2.0647,-2.0639,-2.0629,-2.0635,-2.0632,-2.0643,-2.0643,-2.0643,-2.0643,-2.0643,-2.0226,-2.0241,-2.0275,-2.0304,-2.0327,-2.0352,-2.0371,-2.0396,-2.0422,-2.0457,-2.0474,-2.0505,-2.0537,-2.0584,-2.0605,-2.0629,-2.0634,-2.0638,-2.0639,-2.064,-2.0639,-2.0625,-2.0635,-2.0636,-2.0636,-2.0636,-2.0636,0,-2.0225,-2.0248,-2.0274,-2.0312,-2.0334,-2.0349,-2.038,-2.0398,-2.0425,-2.0453,-2.0479,-2.0515,-2.0545,-2.0577,-2.0609,-2.0623,-2.0631,-2.063,-2.063,-2.0634,-2.0633,-2.0627,-2.0623,-2.0623,-2.0623,-2.0623,-2.0623,-2.0623,-2.0227,-2.0254,-2.0273,-2.0312,-2.0335,-2.0366,-2.0383,-2.0406,-2.0429,-2.0468,-2.0493,-2.0514,-2.0545,-2.058,-2.0608,-2.0617,-2.0628,-2.0625,-2.0636,-2.0634,-2.0634,-2.0635,-2.063,-2.0627,-2.0627,-2.0636,-2.0636,-2.0636]}]]